RA0001 USMU-USMU

Flight info

Callsign RA0001
Flight time 0h 2m
Altitude 3500
Route FN27 DCT 6606N07647E 6605N07637E 6606N07637E 6608N07639E 6607N07640E 6605N07641E 6605N07632E 6605N07631E DCT ND
Aircraft DA62/L-SDFGRY/C

Departure

Time 2026-05-09 08:56
Airport Novy Urengoy Airport (USMU)

Arrival

Time 2026-05-09 08:58
Airport Novy Urengoy Airport (USMU)
Time Latitude Longitude Altitude Speed Heading
2026-05-09 08:27 66.07139 76.53723 201 ft 0 kts 108°
2026-05-09 08:28 66.07139 76.53722 201 ft 0 kts 108°
2026-05-09 08:30 66.07142 76.53740 207 ft 1 kts 28°
2026-05-09 08:30 66.07149 76.53713 204 ft 5 kts 216°
2026-05-09 08:30 66.07132 76.53704 201 ft 0 kts 196°
2026-05-09 08:31 66.07130 76.53703 201 ft 3 kts 197°
2026-05-09 08:31 66.07111 76.53688 208 ft 3 kts 198°
2026-05-09 08:31 66.07077 76.53640 204 ft 6 kts 278°
2026-05-09 08:31 66.07071 76.53566 201 ft 4 kts 204°
2026-05-09 08:32 66.07070 76.53565 201 ft 0 kts 202°
2026-05-09 08:33 66.07065 76.53560 201 ft 6 kts 198°
2026-05-09 08:33 66.07011 76.53483 201 ft 5 kts 286°
2026-05-09 08:33 66.07026 76.53389 207 ft 7 kts 288°
2026-05-09 08:33 66.07041 76.53283 206 ft 7 kts 286°
2026-05-09 08:34 66.07054 76.53175 201 ft 7 kts 289°
2026-05-09 08:34 66.07070 76.53060 207 ft 7 kts 285°
2026-05-09 08:34 66.07071 76.52929 201 ft 9 kts 251°
2026-05-09 08:34 66.07068 76.52769 201 ft 10 kts 287°
2026-05-09 08:35 66.07092 76.52589 201 ft 11 kts 287°
2026-05-09 08:35 66.07117 76.52394 201 ft 12 kts 288°
2026-05-09 08:35 66.07144 76.52186 206 ft 9 kts 280°
2026-05-09 08:35 66.07107 76.52121 201 ft 0 kts 200°
2026-05-09 08:39 66.07107 76.52122 201 ft 0 kts 200°
2026-05-09 08:40 66.07070 76.52090 200 ft 14 kts 199°
2026-05-09 08:41 66.06981 76.52055 201 ft 8 kts 91°
2026-05-09 08:41 66.06983 76.52105 201 ft 0 kts 105°
2026-05-09 08:43 66.06983 76.52104 201 ft 0 kts 105°
2026-05-09 08:45 66.06979 76.52138 201 ft 11 kts 107°
2026-05-09 08:45 66.06925 76.52561 202 ft 31 kts 108°
2026-05-09 08:46 66.06864 76.53009 204 ft 23 kts 108°
2026-05-09 08:46 66.06811 76.53424 199 ft 32 kts 108°
2026-05-09 08:46 66.06788 76.53789 205 ft 9 kts 44°
2026-05-09 08:46 66.06835 76.53839 201 ft 3 kts 17°
2026-05-09 08:47 66.06890 76.53883 201 ft 15 kts 17°
2026-05-09 08:47 66.06961 76.53888 204 ft 6 kts 291°
2026-05-09 08:47 66.06995 76.53629 201 ft 21 kts 287°
2026-05-09 08:47 66.07037 76.53306 201 ft 18 kts 288°
2026-05-09 08:48 66.07075 76.53015 201 ft 18 kts 277°
2026-05-09 08:48 66.07062 76.52805 201 ft 6 kts 290°
2026-05-09 08:48 66.07092 76.52589 201 ft 25 kts 287°
2026-05-09 08:48 66.07142 76.52214 206 ft 18 kts 283°
2026-05-09 08:49 66.07112 76.52126 203 ft 8 kts 202°
2026-05-09 08:49 66.07102 76.52116 201 ft 0 kts 200°
2026-05-09 08:52 66.07100 76.52114 201 ft 4 kts 199°
2026-05-09 08:52 66.07011 76.52050 210 ft 17 kts 182°
2026-05-09 08:52 66.06984 76.52089 202 ft 3 kts 106°
2026-05-09 08:52 66.06983 76.52093 201 ft 0 kts 104°
2026-05-09 08:53 66.06983 76.52092 201 ft 0 kts 104°
2026-05-09 08:54 66.06982 76.52113 206 ft 8 kts 105°
2026-05-09 08:54 66.06902 76.52727 202 ft 70 kts 110°
2026-05-09 08:54 66.06671 76.54091 336 ft 99 kts 107°
2026-05-09 08:55 66.06402 76.55755 583 ft 113 kts 121°
2026-05-09 08:55 66.05648 76.56634 802 ft 137 kts 181°
2026-05-09 08:55 66.04965 76.56060 795 ft 155 kts 214°
2026-05-09 08:56 66.04385 76.54258 957 ft 155 kts 253°
2026-05-09 08:56 66.04317 76.51607 1018 ft 160 kts 283°
2026-05-09 08:56 66.04665 76.49563 1056 ft 109 kts 303°
2026-05-09 08:56 66.05029 76.48075 836 ft 99 kts 307°
2026-05-09 08:57 66.05454 76.46784 674 ft 95 kts 329°
2026-05-09 08:57 66.06038 76.46550 550 ft 87 kts 17°
2026-05-09 08:57 66.06610 76.47095 458 ft 76 kts 30°
2026-05-09 08:57 66.07027 76.47784 384 ft 71 kts 39°
2026-05-09 08:58 66.07310 76.48758 274 ft 71 kts 73°
2026-05-09 08:58 66.07258 76.49929 206 ft 69 kts 100°
2026-05-09 08:58 66.07187 76.50527 199 ft 12 kts 108°
2026-05-09 08:58 66.07178 76.50594 201 ft 0 kts 104°
2026-05-09 09:00 66.07140 76.50899 202 ft 37 kts 107°
2026-05-09 09:00 66.07054 76.51568 212 ft 39 kts 110°
2026-05-09 09:00 66.06997 76.51994 201 ft 0 kts 112°
2026-05-09 09:01 66.06997 76.51993 201 ft 0 kts 112°
2026-05-09 09:04 66.06995 76.52009 208 ft 11 kts 108°
2026-05-09 09:04 66.06913 76.52630 203 ft 66 kts 109°
2026-05-09 09:04 66.06792 76.53623 200 ft 0 kts 192°
2026-05-09 09:05 66.06793 76.53623 200 ft 0 kts 193°